[[{"header":{"parameterUnit":"m.s-1","parameterCategory":2,"la1":30.2992,"la2":30.254,"lo1":-89.0895,"lo2":-89.0443,"dy":0.0025,"dx":0.0025,"nx":19,"ny":19,"refTime":"2026-04-22T21:00:00:Z","depth":"0","parameterNumber":2,"parameterNumberName":"U-component_of_CURRENTS"},"data":[0,0,0,0.3213,0.3214,0.322,0.3219,0.3281,0.3281,0,0,0,0,0,0,0,0,0,0,0,0.3208,0.3208,0.3213,0.3214,0.322,0.3219,0.328,0.3282,0,0,0,0,0,0,0,0,0,0,0,0.3207,0.3208,0.3208,0.3214,0.322,0.3219,0.328,0.3258,0,0,0,0,0,0,0,0,0,0,0.3244,0.3237,0.3208,0.3208,0.3214,0.322,0.3219,0.3256,0.326,0.3299,0,0.331,0,0.3309,0.3288,0.3289,0,0,0,0.3196,0.3234,0.3242,0.3208,0.3214,0.322,0.3212,0.3257,0.3261,0.3304,0.3311,0.3313,0.331,0.3289,0.329,0.3488,0.3489,0,0,0.3195,0.3202,0.3239,0.3244,0.3232,0.3212,0.3212,0.3259,0.3268,0.3311,0.3314,0.3311,0.329,0.3291,0.3487,0.3488,0,0,0,0.3207,0.3202,0.3206,0.3242,0.3246,0.3212,0.3213,0.3265,0.3269,0.3315,0.3312,0.329,0.3292,0.3485,0.3487,0.3604,0,0,0,0.3205,0.321,0.3207,0.3209,0.3245,0.3249,0.3218,0.3265,0.327,0.3312,0.329,0.3293,0.3484,0.3486,0.3597,0.3617,0,0,0,0.3204,0.3209,0.3216,0.321,0.3222,0.3248,0.3253,0.3265,0.3271,0.3289,0.3293,0.3483,0.3486,0.3592,0.3608,0.3667,0,0,0,0.3202,0.3228,0.3216,0.3254,0.3222,0.3285,0.3252,0.3307,0.3332,0.3291,0.3484,0.3487,0.359,0.3603,0.3661,0.3536,0.355,0,0,0.3234,0.3232,0.3257,0.3247,0.3305,0.3281,0.338,0.3401,0.3396,0.3465,0.3469,0.36,0.3608,0.3665,0.3727,0.3735,0,0,0,0.3267,0.3285,0.3305,0.3332,0.3367,0.3422,0.3441,0.3495,0.3582,0.3429,0.3635,0.3636,0.3668,0.3583,0.3591,0.3433,0.3502,0.3502,0.3502,0.3284,0.331,0.3359,0.3401,0.3455,0.3538,0.3613,0.3689,0.3677,0.3763,0.3759,0.3915,0.383,0.3833,0.3675,0.3806,0.3807,0.3807,0.3808,0.3313,0.333,0.3395,0.3449,0.3527,0.3618,0.3782,0.3825,0.3967,0.3926,0.3952,0.3744,0.3847,0.3676,0.3816,0.3814,0.3813,0.3812,0.3812,0.3282,0.33,0.3342,0.3431,0.355,0.3668,0.3814,0.3946,0.4041,0.4104,0.3982,0.3978,0.3797,0.4119,0.412,0.412,0.412,0.4121,0.4121,0.3218,0.3272,0.3311,0.3421,0.3491,0.362,0.3846,0.3944,0.4056,0.4084,0.4082,0.3833,0.4009,0.3963,0.4127,0.4126,0.4125,0.4125,0.4124,0.3193,0.3202,0.3261,0.3318,0.3467,0.3514,0.3734,0.3876,0.4014,0.4027,0.3852,0.4069,0.4005,0.3996,0.395,0.4101,0.4101,0.4101,0.4101,0.3153,0.317,0.3219,0.329,0.3393,0.3471,0.3472,0.3573,0.3694,0.3678,0.3759,0.3645,0.3653,0.3563,0.3564,0.3506,0.3542,0.3541,0.354,0.3151,0.3165,0.318,0.3241,0.3358,0.3371,0.3239,0.3113,0.3298,0.3507,0.3575,0.3599,0.3422,0.3447,0.3292,0.3306,0.3206,0,0]},{"header":{"parameterUnit":"m.s-1","parameterCategory":2,"la1":30.2992,"la2":30.254,"lo1":-89.0895,"lo2":-89.0443,"dy":0.0025,"dx":0.0025,"nx":19,"ny":19,"refTime":"2026-04-22T21:00:00:Z","depth":"0","parameterNumber":3,"parameterNumberName":"V-component_of_CURRENTS"},"data":[0,0,0,0.0353,0.0353,0.0347,0.0347,0.0328,0.0328,0,0,0,0,0,0,0,0,0,0,0,0.0355,0.0356,0.0353,0.0353,0.0347,0.0347,0.0328,0.0328,0,0,0,0,0,0,0,0,0,0,0,0.0355,0.0355,0.0356,0.0353,0.0347,0.0347,0.0328,0.0334,0,0,0,0,0,0,0,0,0,0,0.034,0.0341,0.0355,0.0356,0.0353,0.0347,0.0347,0.0334,0.0333,0.0331,0,0.0336,0,0.0335,0.0327,0.0327,0,0,0,0.0345,0.0342,0.0347,0.0356,0.0353,0.0347,0.0347,0.0334,0.0333,0.033,0.0336,0.0335,0.0335,0.0327,0.0327,0.0384,0.0384,0,0,0.0346,0.0345,0.0348,0.0347,0.036,0.0348,0.0347,0.0333,0.0332,0.0336,0.0335,0.0334,0.0327,0.0327,0.0383,0.0384,0,0,0,0.0352,0.0345,0.0351,0.0348,0.035,0.0348,0.0347,0.0332,0.0336,0.0335,0.0334,0.0327,0.0327,0.0382,0.0383,0.0556,0,0,0,0.0352,0.035,0.0351,0.035,0.035,0.0341,0.0346,0.0337,0.0336,0.0334,0.0327,0.0327,0.0382,0.0383,0.055,0.0659,0,0,0,0.0354,0.0349,0.0353,0.035,0.0351,0.0341,0.0344,0.0337,0.0336,0.0327,0.0327,0.0381,0.0383,0.0544,0.0648,0.0737,0,0,0,0.0347,0.0383,0.0353,0.0396,0.0352,0.0402,0.0344,0.0367,0.0368,0.0327,0.0382,0.0383,0.0543,0.0641,0.073,0.0803,0.0842,0,0,0.0397,0.0389,0.0418,0.0392,0.0462,0.0402,0.0482,0.045,0.039,0.0382,0.0383,0.0552,0.0647,0.0736,0.0899,0.0936,0,0,0,0.0438,0.0466,0.048,0.0509,0.0519,0.0569,0.0523,0.0523,0.0534,0.0399,0.0537,0.0592,0.0643,0.0671,0.0699,0.0544,0.0391,0.0391,0.0391,0.0503,0.0525,0.0595,0.063,0.0666,0.0682,0.0731,0.072,0.0628,0.0664,0.0721,0.0895,0.0926,0.0948,0.0788,0.0687,0.0688,0.0689,0.0689,0.0619,0.0676,0.0709,0.0791,0.0831,0.09,0.095,0.0924,0.0995,0.0877,0.0916,0.0837,0.0991,0.0807,0.07,0.0698,0.0697,0.0696,0.0695,0.0679,0.0718,0.0762,0.0895,0.1017,0.1066,0.1255,0.1241,0.1173,0.1235,0.1209,0.1206,0.1055,0.123,0.1231,0.1232,0.1233,0.1233,0.1234,0.0729,0.078,0.089,0.1022,0.1132,0.1305,0.1452,0.1531,0.1526,0.1431,0.1429,0.1105,0.106,0.105,0.1248,0.1245,0.1244,0.1242,0.1241,0.0837,0.0843,0.1013,0.1127,0.14,0.1645,0.1753,0.1901,0.1907,0.1902,0.1454,0.1516,0.1471,0.1445,0.1443,0.1731,0.1731,0.1731,0.1731,0.0893,0.0914,0.1137,0.1344,0.161,0.1814,0.2138,0.219,0.192,0.1705,0.1567,0.1426,0.1413,0.1352,0.1328,0.1318,0.1567,0.1567,0.1566,0.0978,0.1029,0.1202,0.1399,0.171,0.2013,0.2312,0.2365,0.1865,0.1537,0.1344,0.1351,0.1111,0.1103,0.0969,0.0948,0.0916,0,0]}],[{"header":{"parameterUnit":"m.s-1","parameterCategory":2,"la1":30.2992,"la2":30.254,"lo1":-89.0895,"lo2":-89.0443,"dy":0.0025,"dx":0.0025,"nx":19,"ny":19,"refTime":"2026-04-22T21:00:00:Z","depth":"2","parameterNumber":2,"parameterNumberName":"U-component_of_CURRENTS"},"data":[0,0,0,0.2788,0.2789,0.2846,0.2846,0.2942,0.2943,0,0,0,0,0,0,0,0,0,0,0,0.2768,0.2769,0.2787,0.279,0.2846,0.2846,0.2942,0.2943,0,0,0,0,0,0,0,0,0,0,0,0.2768,0.2769,0.277,0.279,0.2846,0.2846,0.2941,0.2889,0,0,0,0,0,0,0,0,0,0,0.2829,0.283,0.2768,0.277,0.279,0.2846,0.2846,0.2886,0.2892,0.2929,0,0.2953,0,0.2961,0.2952,0.2952,0,0,0,0.2772,0.2824,0.2829,0.277,0.2791,0.2846,0.2815,0.2889,0.2896,0.2938,0.2954,0.2958,0.2962,0.2953,0.2953,0.3139,0.314,0,0,0.2768,0.2787,0.2824,0.2834,0.2828,0.2814,0.2817,0.2893,0.2917,0.2955,0.296,0.2964,0.2953,0.2954,0.3138,0.3139,0,0,0,0.2772,0.2785,0.2786,0.283,0.2844,0.2816,0.282,0.2913,0.2912,0.2961,0.2965,0.2954,0.2956,0.3136,0.3138,0.325,0,0,0,0.2769,0.2787,0.2785,0.2797,0.2843,0.2882,0.2839,0.2906,0.2915,0.2964,0.2954,0.2957,0.3135,0.3137,0.3244,0.3283,0,0,0,0.2762,0.2787,0.2797,0.2798,0.2829,0.288,0.2882,0.2907,0.2919,0.2952,0.2957,0.3134,0.3137,0.3239,0.3275,0.3324,0,0,0,0.2771,0.2793,0.2798,0.2838,0.2829,0.29,0.2881,0.2962,0.3002,0.2955,0.3135,0.3138,0.3238,0.327,0.3319,0.3132,0.3139,0,0,0.2792,0.2797,0.2817,0.2822,0.2883,0.2889,0.2986,0.3041,0.3048,0.3106,0.311,0.3246,0.3275,0.3323,0.3278,0.3281,0,0,0,0.2819,0.2839,0.2861,0.2903,0.2948,0.3017,0.3063,0.3117,0.3211,0.3086,0.3266,0.3281,0.3307,0.3185,0.3189,0.315,0.315,0.3149,0.3149,0.2838,0.2862,0.2909,0.2952,0.302,0.313,0.3212,0.3293,0.3287,0.3368,0.3388,0.3521,0.3395,0.3394,0.341,0.341,0.3411,0.3411,0.3411,0.2844,0.2862,0.2938,0.2995,0.3091,0.3191,0.3355,0.341,0.3557,0.3519,0.354,0.3329,0.3403,0.3421,0.3419,0.3418,0.3417,0.3416,0.3415,0.2815,0.2832,0.2886,0.2981,0.3118,0.324,0.3381,0.3535,0.3636,0.3714,0.3546,0.3541,0.3564,0.372,0.3721,0.3721,0.3722,0.3722,0.3722,0.2755,0.2812,0.2853,0.2979,0.3048,0.3187,0.3422,0.351,0.3615,0.3649,0.3647,0.3625,0.3615,0.3582,0.3729,0.3728,0.3727,0.3726,0.3726,0.271,0.2753,0.2796,0.2856,0.3006,0.2995,0.3252,0.3355,0.3503,0.3499,0.3598,0.3598,0.3535,0.3528,0.3493,0.3609,0.3609,0.3609,0.3609,0.2667,0.2697,0.2739,0.2808,0.2869,0.2928,0.2858,0.2962,0.3184,0.3254,0.327,0.3145,0.3157,0.3066,0.307,0.3022,0.3015,0.3014,0.3013,0.2631,0.2667,0.2664,0.2762,0.2812,0.2756,0.2548,0.2464,0.2658,0.299,0.3164,0.357,0.3422,0.3428,0.3311,0.3309,0.3241,0,0]},{"header":{"parameterUnit":"m.s-1","parameterCategory":2,"la1":30.2992,"la2":30.254,"lo1":-89.0895,"lo2":-89.0443,"dy":0.0025,"dx":0.0025,"nx":19,"ny":19,"refTime":"2026-04-22T21:00:00:Z","depth":"2","parameterNumber":3,"parameterNumberName":"V-component_of_CURRENTS"},"data":[0,0,0,0.0236,0.0236,0.0237,0.0237,0.0235,0.0235,0,0,0,0,0,0,0,0,0,0,0,0.0237,0.0237,0.0236,0.0236,0.0237,0.0237,0.0235,0.0235,0,0,0,0,0,0,0,0,0,0,0,0.0237,0.0237,0.0237,0.0236,0.0237,0.0237,0.0235,0.0234,0,0,0,0,0,0,0,0,0,0,0.0232,0.023,0.0237,0.0237,0.0236,0.0237,0.0237,0.0234,0.0234,0.0235,0,0.0241,0,0.024,0.0235,0.0235,0,0,0,0.0231,0.023,0.0237,0.0237,0.0236,0.0237,0.0235,0.0234,0.0234,0.0235,0.0241,0.0241,0.024,0.0235,0.0235,0.0287,0.0288,0,0,0.023,0.0229,0.0237,0.0238,0.0244,0.0235,0.0235,0.0234,0.0233,0.0241,0.0241,0.024,0.0235,0.0235,0.0287,0.0287,0,0,0,0.0234,0.0229,0.0236,0.0238,0.0239,0.0235,0.0235,0.0233,0.0238,0.0241,0.024,0.0235,0.0235,0.0286,0.0287,0.0413,0,0,0,0.0234,0.0231,0.0236,0.0234,0.024,0.0235,0.0235,0.0238,0.0237,0.024,0.0235,0.0235,0.0285,0.0286,0.0408,0.0505,0,0,0,0.0236,0.0231,0.0235,0.0234,0.0237,0.0235,0.0239,0.0237,0.0237,0.0235,0.0235,0.0285,0.0286,0.0404,0.0496,0.0556,0,0,0,0.0228,0.0256,0.0235,0.0271,0.0238,0.0288,0.0239,0.0264,0.027,0.0235,0.0286,0.0287,0.0403,0.049,0.0551,0.057,0.0597,0,0,0.0264,0.026,0.0285,0.0268,0.0334,0.0287,0.0354,0.0332,0.0287,0.0283,0.0284,0.041,0.0495,0.0555,0.0643,0.0668,0,0,0,0.0299,0.0323,0.0339,0.0369,0.0385,0.0428,0.0393,0.0387,0.0393,0.0296,0.04,0.0451,0.0484,0.0484,0.0503,0.0293,0.0293,0.0293,0.0292,0.0347,0.0369,0.0434,0.0471,0.0505,0.0521,0.0558,0.0541,0.047,0.0491,0.0545,0.0671,0.0671,0.0686,0.0511,0.0512,0.0512,0.0512,0.0513,0.0438,0.049,0.0525,0.0599,0.0638,0.0694,0.0727,0.0699,0.0746,0.0657,0.0681,0.0607,0.0716,0.0523,0.0521,0.0519,0.0518,0.0518,0.0517,0.0487,0.0521,0.0564,0.0679,0.0786,0.0829,0.0973,0.0954,0.0888,0.0934,0.0887,0.0884,0.0766,0.0924,0.0925,0.0926,0.0926,0.0927,0.0927,0.0524,0.0572,0.0663,0.0784,0.0874,0.1026,0.1133,0.1175,0.1139,0.1059,0.1057,0.081,0.0797,0.0789,0.0938,0.0936,0.0935,0.0934,0.0933,0.0602,0.062,0.0758,0.0852,0.1081,0.1279,0.1364,0.1429,0.1413,0.1382,0.111,0.1102,0.1067,0.1049,0.1046,0.1253,0.1253,0.1253,0.1253,0.0646,0.0668,0.0855,0.1018,0.1236,0.1405,0.1622,0.1616,0.1457,0.1313,0.131,0.121,0.1196,0.1161,0.1139,0.1135,0.1366,0.1366,0.1366,0.0705,0.076,0.09,0.1064,0.1307,0.1546,0.1737,0.1712,0.1434,0.1369,0.131,0.1265,0.1104,0.1088,0.1013,0.0987,0.0971,0,0]}],[{"header":{"parameterUnit":"m.s-1","parameterCategory":2,"la1":30.2992,"la2":30.254,"lo1":-89.0895,"lo2":-89.0443,"dy":0.0025,"dx":0.0025,"nx":19,"ny":19,"refTime":"2026-04-22T21:00:00:Z","depth":"4","parameterNumber":2,"parameterNumberName":"U-component_of_CURRENTS"},"data":[0,0,0,0.1681,0.1684,0.1856,0.1857,0.2035,0.2037,0,0,0,0,0,0,0,0,0,0,0,0.1636,0.1637,0.1681,0.1685,0.1856,0.1857,0.2035,0.2037,0,0,0,0,0,0,0,0,0,0,0,0.1635,0.1637,0.1639,0.1685,0.1856,0.1857,0.2035,0.1918,0,0,0,0,0,0,0,0,0,0,0.1757,0.1722,0.1636,0.1639,0.1686,0.1856,0.1857,0.1913,0.1925,0.1942,0,0.198,0,0.2002,0.2047,0.2047,0,0,0,0.1695,0.1712,0.175,0.1639,0.1688,0.1856,0.1782,0.192,0.1934,0.1958,0.1983,0.1989,0.2005,0.2048,0.2048,0.2201,0.2201,0,0,0.1685,0.1673,0.1741,0.1759,0.1746,0.1776,0.1787,0.1929,0.1953,0.1983,0.1994,0.2008,0.2049,0.205,0.22,0.2201,0,0,0,0.1651,0.1666,0.1703,0.1752,0.1781,0.1781,0.1793,0.1947,0.1958,0.1996,0.201,0.2049,0.2051,0.22,0.2201,0.2259,0,0,0,0.1646,0.1646,0.1699,0.1694,0.1779,0.1872,0.1808,0.1948,0.1965,0.2009,0.2049,0.2053,0.2199,0.22,0.2256,0.2276,0,0,0,0.1625,0.1643,0.1666,0.1693,0.176,0.187,0.1891,0.1953,0.1973,0.2047,0.2053,0.2199,0.22,0.2254,0.2271,0.2334,0,0,0,0.1602,0.1625,0.1666,0.1708,0.1759,0.1842,0.189,0.1988,0.2055,0.205,0.2199,0.22,0.2253,0.2269,0.2331,0.2032,0,0,0,0.1604,0.1626,0.1648,0.1687,0.1749,0.1818,0.1915,0.2037,0.2077,0.215,0.2154,0.2257,0.2271,0.2334,0.2111,0,0,0,0,0.1629,0.1645,0.1673,0.173,0.1799,0.1906,0.2004,0.2063,0.2191,0.2121,0.2267,0.2274,0.2312,0.2128,0.2207,0.2207,0.2206,0.2206,0.2206,0.1595,0.1638,0.1681,0.1754,0.1831,0.1978,0.208,0.2182,0.2209,0.2284,0.233,0.2426,0.2234,0.2341,0.2341,0.2342,0.2342,0.2342,0.2342,0.1574,0.1596,0.169,0.1752,0.1881,0.1989,0.2175,0.2252,0.2403,0.2388,0.2422,0.2211,0.2348,0.2347,0.2346,0.2345,0.2345,0.2345,0.2344,0.153,0.1548,0.1611,0.172,0.1863,0.2027,0.2184,0.2343,0.2454,0.2522,0.2344,0.2475,0.2463,0.2556,0.2556,0.2557,0.2557,0.2557,0.2557,0.1457,0.1516,0.1558,0.1688,0.1762,0.1939,0.2205,0.231,0.2465,0.238,0.2553,0.2498,0.2491,0.2476,0.2563,0.2562,0.2562,0.2561,0.2561,0.1382,0.1429,0.1467,0.1523,0.1658,0.1754,0.2043,0.2202,0.2289,0.2286,0.2303,0.2314,0.2269,0.2268,0.2242,0.2265,0.2261,0.2257,0,0.1326,0.135,0.1376,0.1391,0.1445,0.1621,0.17,0.188,0.2043,0.1965,0.2264,0.2275,0.2283,0.2223,0.2217,0.218,0,0,0,0.127,0.1294,0.1268,0.1291,0.1307,0.1467,0.1712,0.1718,0.2015,0.2039,0.217,0.2193,0.2401,0.2581,0.2538,0.253,0.2503,0,0]},{"header":{"parameterUnit":"m.s-1","parameterCategory":2,"la1":30.2992,"la2":30.254,"lo1":-89.0895,"lo2":-89.0443,"dy":0.0025,"dx":0.0025,"nx":19,"ny":19,"refTime":"2026-04-22T21:00:00:Z","depth":"4","parameterNumber":3,"parameterNumberName":"V-component_of_CURRENTS"},"data":[0,0,0,0.0207,0.0207,0.0217,0.0217,0.0237,0.0237,0,0,0,0,0,0,0,0,0,0,0,0.0203,0.0203,0.0207,0.0207,0.0217,0.0217,0.0237,0.0237,0,0,0,0,0,0,0,0,0,0,0,0.0203,0.0203,0.0204,0.0207,0.0217,0.0217,0.0236,0.0226,0,0,0,0,0,0,0,0,0,0,0.0215,0.0208,0.0203,0.0204,0.0207,0.0217,0.0217,0.0226,0.0227,0.0235,0,0.0239,0,0.024,0.0239,0.0239,0,0,0,0.0204,0.0207,0.0215,0.0204,0.0207,0.0217,0.0212,0.0226,0.0228,0.0236,0.024,0.024,0.0241,0.0239,0.0239,0.0288,0.0289,0,0,0.0203,0.02,0.0214,0.0216,0.0214,0.0211,0.0212,0.0227,0.0228,0.024,0.0241,0.0241,0.0239,0.0239,0.0288,0.0288,0,0,0,0.0204,0.0199,0.0207,0.0215,0.0218,0.0212,0.0213,0.0227,0.0231,0.0241,0.0241,0.0239,0.0239,0.0288,0.0288,0.0343,0,0,0,0.0203,0.02,0.0206,0.0204,0.0218,0.0221,0.0212,0.023,0.0231,0.0241,0.0239,0.024,0.0287,0.0288,0.0341,0.0382,0,0,0,0.0202,0.02,0.0203,0.0204,0.021,0.0221,0.0225,0.023,0.0232,0.0239,0.024,0.0287,0.0288,0.0338,0.0378,0.0393,0,0,0,0.0195,0.0214,0.0203,0.0231,0.021,0.0255,0.0225,0.0253,0.0264,0.0239,0.0287,0.0288,0.0338,0.0375,0.039,0.0409,0,0,0,0.0219,0.0217,0.0236,0.0227,0.028,0.0253,0.0301,0.0297,0.0276,0.0281,0.0282,0.0341,0.0378,0.0392,0.0457,0,0,0,0,0.0245,0.0261,0.0276,0.03,0.0321,0.0347,0.0338,0.0329,0.0332,0.0286,0.0343,0.0364,0.0371,0.0376,0.0292,0.0292,0.0292,0.0292,0.0292,0.0268,0.0289,0.0335,0.0368,0.0398,0.0412,0.0425,0.0409,0.0382,0.0387,0.0409,0.0462,0.0469,0.0399,0.04,0.04,0.04,0.04,0.04,0.032,0.0352,0.0385,0.044,0.0468,0.0509,0.0516,0.0495,0.0497,0.0461,0.0464,0.0434,0.0406,0.0405,0.0404,0.0403,0.0403,0.0403,0.0402,0.034,0.0361,0.0396,0.0479,0.0548,0.0582,0.0651,0.0619,0.0564,0.0573,0.0556,0.05,0.0494,0.0565,0.0566,0.0566,0.0566,0.0566,0.0566,0.0344,0.0383,0.0449,0.0532,0.06,0.069,0.0731,0.0734,0.0671,0.0636,0.0591,0.0517,0.0512,0.0504,0.0571,0.057,0.0569,0.0569,0.0569,0.0376,0.0394,0.0496,0.0566,0.0723,0.0788,0.0833,0.0816,0.0803,0.0751,0.0655,0.065,0.0631,0.0623,0.0617,0.0721,0.0721,0.0722,0,0.039,0.0407,0.0549,0.0671,0.0797,0.0857,0.0897,0.0889,0.0787,0.0773,0.0768,0.0661,0.0656,0.0634,0.0627,0.0621,0,0,0,0.0417,0.0461,0.0562,0.0688,0.0833,0.0883,0.0913,0.0895,0.0808,0.0799,0.0735,0.0731,0.067,0.0582,0.0541,0.0534,0.0518,0,0]}]]